Location: Caltech
(34.1382°N, 118.1253°W)
Time: 00:02:54
(UTC-07:00)

OAO 2 Rocket - Visible Passes

Search period start: 21 October 2014 00:00
Search period end: 31 October 2014 00:00
Orbit: 677 x 749 km, 35.0° (Epoch: 19 October)

Date Brightness Start Highest point End Pass type
(mag) Time Alt. Az. Time Alt. Az. Time Alt. Az.
21 Oct 4.8 04:53:07 28° S 04:53:59 29° SSE 04:58:31 10° E visible
21 Oct 3.6 06:33:17 10° WSW 06:38:31 76° SSE 06:43:51 10° E visible
22 Oct 6.0 03:59:30 15° ESE 03:59:30 15° ESE 04:00:49 10° E visible
22 Oct 3.7 05:38:31 26° SW 05:41:23 61° SSE 05:46:37 10° E visible
23 Oct 4.2 04:44:49 44° SE 04:44:49 44° SE 04:49:20 10° E visible
23 Oct 3.4 06:23:50 10° W 06:29:04 88° N 06:34:24 10° E visible
24 Oct 6.1 03:51:03 14° E 03:51:03 14° E 03:51:56 10° E visible
24 Oct 3.4 05:30:04 42° WSW 05:31:52 81° SSE 05:37:10 10° E visible
25 Oct 4.4 04:36:14 44° E 04:36:14 44° E 04:39:56 10° E visible
25 Oct 3.4 06:15:15 15° W 06:19:38 81° N 06:24:57 10° E visible
26 Oct 6.3 03:42:22 12° E 03:42:22 12° E 03:42:40 10° E visible
26 Oct 3.3 05:21:23 58° W 05:22:25 85° N 05:27:42 10° E visible
27 Oct 4.8 04:27:29 35° E 04:27:29 35° E 04:30:28 10° E visible
27 Oct 3.4 06:06:29 19° W 06:10:13 83° N 06:15:31 10° E visible
28 Oct 3.2 05:12:35 73° NW 05:13:00 80° N 05:18:15 10° E visible
29 Oct 5.3 04:18:40 27° E 04:18:40 27° E 04:21:00 10° E visible
29 Oct 3.4 05:57:41 25° W 06:00:46 86° SSW 06:06:02 10° ESE visible
30 Oct 3.3 05:03:47 81° ENE 05:03:47 81° ENE 05:08:48 10° E visible
